Weather History for Glenwood, MN

Change the Weather History Date:

Sunday, January 13, 2013

  Actual Average Record
Temperature  
Mean Temperature 0 °F -  
Max Temperature 6 °F 21 °F 49 °F (1987)
Min Temperature -5 °F 0 °F -31 °F (2009)
Degree Days  
Heating Degree Days 64    
Moisture  
Dew Point -3 °F    
Average Humidity 82    
Maximum Humidity 92    
Minimum Humidity 72    
Precipitation  
Precipitation 0.00 in - - ()
Sea Level Pressure  
Sea Level Pressure 30.10 in    
Wind  
Wind Speed 9 mph (WNW)    
Max Wind Speed 13 mph    
Max Gust Speed -    
Visibility 10 miles    
Events      
Averages and records for this station are not official NWS values.
T = Trace of Precipitation, MM = Missing Value Source: NWS Daily Summary

Daily Weather History Graph

Daily Weather History Graph

Search for Another Location

Airport:

Trip Planner

Search our weather history database for the weather conditions in past years. The results will help you decide how hot, cold, wet, or windy it might be!

Date:

Astronomy

Jan. 13, 2013 Rise Set
Actual Time 7:58 AM CST 5:01 PM CST
Civil Twilight 7:25 AM CST 5:35 PM CST
Nautical Twilight 6:48 AM CST 6:11 PM CST
Astronomical Twilight 6:13 AM CST 6:47 PM CST
Moon 8:49 AM CST (1/13) 7:51 PM CST (1/13)
Length of Visible Light 10h 09m
Length of Day
9h 02m
Waxing Crescent, 5% of the Moon is Illuminated
Jan 13
Waxing Crescent
Jan 18
First Quarter
Jan 26
Full
Feb 3
Last Quarter
Feb 10
New

Hourly Weather History & Observations

Time (CST) Temp. Windchill Dew Point Humidity Pressure Visibility Wind Dir Wind Speed Gust Speed Precip Events Conditions
12:13 AM -0.4 °F -17.6 °F -5.8 °F 78% 30.03 in 10.0 mi NW 11.5 mph - N/A   Overcast
12:33 AM -2.2 °F -18.0 °F -5.8 °F 85% 30.05 in 10.0 mi NW 9.2 mph - N/A   Overcast
12:53 AM -2.2 °F -18.0 °F -5.8 °F 85% 30.05 in 10.0 mi WNW 9.2 mph - N/A   Overcast
1:13 AM -2.2 °F -18.0 °F -5.8 °F 85% 30.05 in 10.0 mi NW 9.2 mph - N/A   Overcast
1:34 AM -0.4 °F -18.4 °F -5.8 °F 78% 30.04 in 10.0 mi NW 12.7 mph - N/A   Overcast
1:53 AM -2.2 °F -18.9 °F -7.6 °F 78% 30.04 in 10.0 mi NW 10.4 mph - N/A   Scattered Clouds
2:13 AM -2.2 °F -18.0 °F -7.6 °F 78% 30.04 in 10.0 mi NW 9.2 mph - N/A   Clear
2:34 AM -2.2 °F -16.8 °F -7.6 °F 78% 30.05 in 10.0 mi NW 8.1 mph - N/A   Clear
2:53 AM -2.2 °F -15.6 °F -7.6 °F 78% 30.05 in 10.0 mi NW 6.9 mph - N/A   Clear
3:13 AM -4.0 °F -17.8 °F -7.6 °F 85% 30.05 in 10.0 mi NNW 6.9 mph - N/A   Clear
3:34 AM -4.0 °F -16.3 °F -7.6 °F 85% 30.05 in 10.0 mi NW 5.8 mph - N/A   Clear
3:53 AM -4.0 °F -16.3 °F -7.6 °F 85% 30.05 in 10.0 mi NW 5.8 mph - N/A   Clear
4:13 AM -4.0 °F -20.2 °F -7.6 °F 85% 30.05 in 10.0 mi NW 9.2 mph - N/A   Scattered Clouds
4:34 AM -4.0 °F -21.2 °F -7.6 °F 85% 30.06 in 10.0 mi NW 10.4 mph - N/A   Scattered Clouds
4:53 AM -4.0 °F -22.1 °F -7.6 °F 85% 30.05 in 10.0 mi NW 11.5 mph - N/A   Scattered Clouds
5:13 AM -4.0 °F -20.2 °F -7.6 °F 85% 30.06 in 10.0 mi WNW 9.2 mph - N/A   Clear
5:34 AM -4.0 °F -17.8 °F -7.6 °F 85% 30.07 in 10.0 mi West 6.9 mph - N/A   Scattered Clouds
6:14 AM -2.2 °F -19.9 °F -7.6 °F 78% 30.06 in 3.0 mi NW 11.5 mph - N/A   Mostly Cloudy
6:33 AM -2.2 °F -18.9 °F -7.6 °F 78% 30.07 in 4.0 mi NW 10.4 mph - N/A   Overcast
6:53 AM -2.2 °F -18.0 °F -7.6 °F 78% 30.07 in 10.0 mi NW 9.2 mph - N/A   Overcast
7:13 AM -2.2 °F -19.9 °F -7.6 °F 78% 30.08 in 10.0 mi NW 11.5 mph - N/A   Overcast
7:33 AM -4.0 °F -21.2 °F -7.6 °F 85% 30.09 in 10.0 mi NW 10.4 mph - N/A   Mostly Cloudy
7:54 AM -4.0 °F -20.2 °F -7.6 °F 85% 30.10 in 10.0 mi WNW 9.2 mph - N/A   Scattered Clouds
8:13 AM -5.8 °F -21.2 °F -7.6 °F 92% 30.11 in 10.0 mi WNW 8.1 mph - N/A   Clear
8:33 AM -5.8 °F -21.2 °F -9.4 °F 84% 30.12 in 10.0 mi WNW 8.1 mph - N/A   Clear
8:53 AM -4.0 °F -19.0 °F -7.6 °F 85% 30.13 in 10.0 mi WNW 8.1 mph - N/A   Clear
9:13 AM -4.0 °F -17.8 °F -7.6 °F 85% 30.13 in 10.0 mi NW 6.9 mph - N/A   Clear
9:33 AM -2.2 °F -16.8 °F -7.6 °F 78% 30.13 in 10.0 mi NW 8.1 mph - N/A   Clear
9:53 AM -2.2 °F -18.0 °F -7.6 °F 78% 30.13 in 10.0 mi NW 9.2 mph - N/A   Clear
10:13 AM -2.2 °F -15.6 °F -7.6 °F 78% 30.13 in 10.0 mi NW 6.9 mph - N/A   Clear
10:33 AM -2.2 °F -18.0 °F -7.6 °F 78% 30.13 in 10.0 mi WNW 9.2 mph - N/A   Clear
10:53 AM -2.2 °F -15.6 °F -7.6 °F 78% 30.12 in 10.0 mi NW 6.9 mph - N/A   Clear
11:14 AM -0.4 °F -13.4 °F -5.8 °F 78% 30.11 in 10.0 mi WNW 6.9 mph - N/A   Clear
11:33 AM 1.4 °F -13.5 °F -5.8 °F 72% 30.10 in 10.0 mi West 9.2 mph - N/A   Unknown
11:53 AM 1.4 °F -13.5 °F -5.8 °F 72% 30.09 in 10.0 mi West 9.2 mph - N/A   Unknown
12:14 PM 1.4 °F -13.5 °F -4.0 °F 78% 30.08 in 10.0 mi WNW 9.2 mph - N/A   Unknown
12:33 PM 3.2 °F -11.3 °F -2.2 °F 78% 30.08 in 10.0 mi WNW 9.2 mph - N/A   Unknown
12:53 PM 3.2 °F -12.2 °F -2.2 °F 78% 30.07 in 10.0 mi WNW 10.4 mph - N/A   Unknown
1:14 PM 1.4 °F -15.3 °F -4.0 °F 78% 30.07 in 10.0 mi WNW 11.5 mph - N/A   Unknown
1:33 PM 3.2 °F -11.3 °F -2.2 °F 78% 30.07 in 10.0 mi West 9.2 mph - N/A   Unknown
1:53 PM 3.2 °F -11.3 °F -2.2 °F 78% 30.07 in 10.0 mi WNW 9.2 mph - N/A   Clear
2:13 PM 3.2 °F -13.1 °F -2.2 °F 78% 30.07 in 10.0 mi WNW 11.5 mph - N/A   Clear
2:33 PM 3.2 °F -13.1 °F -2.2 °F 78% 30.08 in 10.0 mi WNW 11.5 mph - N/A   Clear
2:54 PM 5.0 °F -8.1 °F -2.2 °F 72% 30.09 in 10.0 mi West 8.1 mph - N/A   Clear
3:13 PM 6.8 °F -6.9 °F -0.4 °F 72% 30.09 in 10.0 mi WNW 9.2 mph - N/A   Clear
3:33 PM 5.0 °F -6.9 °F -2.2 °F 72% 30.10 in 10.0 mi West 6.9 mph - N/A   Clear
3:54 PM 5.0 °F -9.1 °F -2.2 °F 72% 30.11 in 10.0 mi West 9.2 mph - N/A   Clear
4:13 PM 5.0 °F -9.1 °F -0.4 °F 78% 30.11 in 10.0 mi West 9.2 mph - N/A   Clear
4:33 PM 5.0 °F -9.1 °F -0.4 °F 78% 30.11 in 10.0 mi West 9.2 mph - N/A   Clear
4:54 PM 5.0 °F -9.1 °F -0.4 °F 78% 30.12 in 10.0 mi West 9.2 mph - N/A   Clear
5:13 PM 5.0 °F -9.1 °F -0.4 °F 78% 30.12 in 10.0 mi West 9.2 mph - N/A   Clear
5:33 PM 5.0 °F -9.1 °F -0.4 °F 78% 30.12 in 10.0 mi West 9.2 mph - N/A   Clear
5:54 PM 5.0 °F -10.0 °F 1.4 °F 85% 30.13 in 10.0 mi West 10.4 mph - N/A   Clear
6:13 PM 3.2 °F -11.3 °F 1.4 °F 92% 30.13 in 10.0 mi West 9.2 mph - N/A   Clear
6:33 PM 3.2 °F -9.1 °F 1.4 °F 92% 30.13 in 10.0 mi West 6.9 mph - N/A   Clear
6:54 PM 3.2 °F -9.1 °F 1.4 °F 92% 30.13 in 10.0 mi West 6.9 mph - N/A   Scattered Clouds
7:13 PM 5.0 °F -6.9 °F 1.4 °F 85% 30.14 in 10.0 mi WSW 6.9 mph - N/A   Clear
7:33 PM 5.0 °F -5.6 °F 1.4 °F 85% 30.14 in 10.0 mi WSW 5.8 mph - N/A   Clear
7:54 PM 5.0 °F -5.6 °F 1.4 °F 85% 30.14 in 10.0 mi WSW 5.8 mph - N/A   Scattered Clouds
8:13 PM 5.0 °F -6.9 °F 1.4 °F 85% 30.15 in 10.0 mi WSW 6.9 mph - N/A   Scattered Clouds
8:33 PM 6.8 °F -4.8 °F 3.2 °F 85% 30.14 in 10.0 mi WSW 6.9 mph - N/A   Mostly Cloudy
8:54 PM 6.8 °F -5.9 °F 3.2 °F 85% 30.15 in 10.0 mi West 8.1 mph - N/A   Mostly Cloudy
9:13 PM 6.8 °F -6.9 °F 3.2 °F 85% 30.14 in 10.0 mi West 9.2 mph - N/A   Mostly Cloudy
9:33 PM 6.8 °F -5.9 °F 3.2 °F 85% 30.15 in 10.0 mi West 8.1 mph - N/A   Mostly Cloudy
9:54 PM 6.8 °F -5.9 °F 3.2 °F 85% 30.15 in 10.0 mi West 8.1 mph - N/A   Mostly Cloudy
10:13 PM 6.8 °F -4.8 °F 3.2 °F 85% 30.16 in 10.0 mi West 6.9 mph - N/A   Mostly Cloudy
10:33 PM 6.8 °F -5.9 °F 3.2 °F 85% 30.17 in 10.0 mi West 8.1 mph - N/A   Mostly Cloudy
10:54 PM 5.0 °F -9.1 °F 1.4 °F 85% 30.17 in 10.0 mi West 9.2 mph - N/A   Mostly Cloudy
11:13 PM 5.0 °F -9.1 °F 1.4 °F 85% 30.18 in 10.0 mi West 9.2 mph - N/A   Scattered Clouds
11:33 PM 3.2 °F -11.3 °F -0.4 °F 85% 30.18 in 10.0 mi West 9.2 mph - N/A   Clear
11:54 PM 1.4 °F -12.5 °F -0.4 °F 92% 30.18 in 10.0 mi West 8.1 mph - N/A   Clear